Regional Weather Roundup
Issued by NWS

Home | Current Version | Previous Version | Text Only | Print | Product List | Glossary Off
Versions: 1 2 3 4 5 6 7 8 9 10 11 12 13 14 15 16 17 18 19 20 21 22 23 24 25 26 27 28 29 30 31 32 33 34 35 36 37 38 39 40 41 42 43 44 45 46 47 48 49 50

232
ASUS43 KIND 261409
RWRIN

WEATHER ROUNDUP FOR INDIANA
NATIONAL WEATHER SERVICE INDIANAPOLIS IN
1000 AM EDT THU MAY 26 2016

NOTE: "FAIR" INDICATES FEW OR NO CLOUDS BELOW 12,000 FEET WITH NO
SIGNIFICANT WEATHER AND/OR OBSTRUCTIONS TO VISIBILITY.

* - STATION DOES NOT REPORT WEATHER SUCH AS PRECIPITATION OR FOG.

+ - STATION NOT QUALITY CONTROLLED BY THE NATIONAL WEATHER SERVICE.
    USE DATA WITH CAUTION...ESPECIALLY DEWPOINT AND RELATIVE
    HUMIDITY OBSERVATIONS.

INZ001>003-010>013-019-020-261500-
NORTHWEST INDIANA

CITY           SKY/WX    TMP DP  RH WIND       PRES   REMARKS
GARY /AIRPORT/ PTSUNNY   75  73  94 S6        29.95R
KNOX *+        MOSUNNY   73  57  56 SW13      29.97S
LA PORTE +     PTSUNNY   76  70  81 SW8       29.97F
MICHIGAN CITY+ CLOUDY    73  70  88 S9        29.96F
MONTICELLO +   CLOUDY    74  65  71 S10       29.97F
RENSSELAER +   PTSUNNY   73  68  83 S12       29.96F
VALPARAISO     PTSUNNY   73  66  78 SW10      29.96F

$$

LMZ046-743>745-261500-
SOUTHERN LAKE MICHIGAN

STATION/POSITION TIME  TEMP    WIND        PRES    WAVE
                       AIR SEA DIR/SP/G            HT
                 (UTC) (F)     (DEG/KT/KT) (MB)    (FT)
BURNS HARBOR     1300   71     190/ 11/ 19 1014.2F
MICHIGAN CITY    1300   70     160/ 11/ 13   N/A
5NW MICH CITY    1400   65 57  200/  6/  8   N/A     1

$$

INZ004-005-014>016-021>024-261500-
NORTH CENTRAL INDIANA

CITY           SKY/WX    TMP DP  RH WIND       PRES   REMARKS
ELKHART        CLOUDY    72  68  88 SW9       29.99R
GOSHEN         CLOUDY    73  65  75 SW12      29.98S
LOGANSPORT +   CLOUDY    72  64  78 SW10      29.99F
PERU/GRISSOM   PTSUNNY   74  67  78 SW15      29.98F
ROCHESTER +    CLOUDY    75  68  78 SW9       29.98S
SOUTH BEND     PTSUNNY   73  66  78 SW8       29.97R
WARSAW +       MOSUNNY   73  64  73 W8        29.99S

$$

INZ006>009-017-018-025>027-261500-
NORTHEAST INDIANA

CITY           SKY/WX    TMP DP  RH WIND       PRES   REMARKS
ANGOLA *+      PTSUNNY   73  68  83 SW6       29.99S
AUBURN +       MOSUNNY   73  63  68 SW7       30.00F
FORT WAYNE     PTSUNNY   75  65  70 SW12      30.00F
HUNTINGTON +   PTSUNNY  N/A N/A N/A W9        30.00S

$$

INZ028-029-035-036-043>045-051>053-261500-
WEST CENTRAL INDIANA

CITY           SKY/WX    TMP DP  RH WIND       PRES   REMARKS
CRAWFORDSVL +  CLOUDY    69  66  91 S12       30.00F
GREENCASTLE +  CLOUDY    70  68  94 S5        30.03F
LAFAYETTE      CLOUDY    70  66  87 S9        29.98F
TERRE HAUTE    PTSUNNY   73  65  75 SW12      30.01S

$$

INZ030>032-037>040-046>048-054>057-064-065-261500-
CENTRAL INDIANA

CITY           SKY/WX    TMP DP  RH WIND       PRES   REMARKS
ANDERSON       CLOUDY    70  64  83 S12       30.04F
CP ATTERBURY + CLOUDY    70  63  78 S5        30.05S
COLUMBUS       PTSUNNY   70  66  88 S9        30.06R
FISHERS *+     CLOUDY    70  66  88 S8        30.02F
FRANKFORT +      N/A     71  67  89 SW5       30.03S
INDIANAPOLIS   CLOUDY    71  64  78 S9        30.01S
-EAGLE CREEK   CLOUDY    72  64  76 S8        30.01F
KOKOMO *+      CLOUDY    73  63  68 SW15      30.00S
MARION +       PTSUNNY   73  64  73 SW13      30.01F
SHELBYVILLE    PTSUNNY   73  63  70 S15       30.04S
ZIONSVILLE +   CLOUDY    70  65  83 S10       30.03F

$$

INZ033-034-041-042-049-050-058-059-261500-
EAST CENTRAL INDIANA

CITY           SKY/WX    TMP DP  RH WIND       PRES   REMARKS
MUNCIE         PTSUNNY   72  63  73 SW10      30.02S

$$

INZ060-061-067>069-081>083-085>088-261500-
SOUTHWEST INDIANA

CITY           SKY/WX    TMP DP  RH WIND       PRES   REMARKS
EVANSVILLE     PTSUNNY   73  64  73 SW13      30.05R
HUNTINGBURG *+ SUNNY     75  64  69 SW12      30.05S
WASHINGTON +   MOSUNNY   74  66  76 SW8       30.02S

$$

INZ062-063-066-070>080-084-089>092-261500-
SOUTH CENTRAL AND SOUTHEAST INDIANA

CITY           SKY/WX    TMP DP  RH WIND       PRES   REMARKS
BEDFORD +      CLOUDY    73  70  88 S5        30.05S
BLOOMINGTON    MOSUNNY   74  64  71 S9        30.03F
MADISON *+     CLOUDY    70  63  78 SE9       30.10F
NORTH VERNON + PTSUNNY   72  70  94 S3        30.08S
SEYMOUR +      PTSUNNY   73  63  68 S8        30.06S

$$





USA.gov is the U.S. government's official web portal to all federal, state and local government web resources and services.